#timestamp,LO_Frequency,Hit,StdDev 
1606665615.8,286047000.1,N
1606665635.7,286047000.6,N
1606665655.5,286047001.1,N
1606665675.4,286047000.6,N
1606665695.2,286047000.9,N
1606665715.0,286046998.9,N
1606665715.9,286046998.9,N
1606665735.8,286046998.9,N
1606665755.6,286047000.8,N
1606665775.4,286047000.8,N
1606665795.3,286047000.1,N
1606665815.1,286047001.5,N
1606665835.9,286047002.7,N
1606665855.7,286047000.3,N
1606665875.5,286046998.2,N
1606665895.4,286046999.3,N
1606665915.2,286046997.0,N
1606665935.0,286046999.5,N
1606665935.9,286046999.5,N
1606665955.8,286046997.6,N
1606665975.6,286046999.2,N
1606665995.5,286046999.4,N
1606666015.3,286046998.8,N
1606666035.1,286047011.9,Y
1606666055.9,286046998.7,P
1606666075.7,286047002.2,P
1606666095.5,286047000.2,N
1606666115.4,286047000.6,N
1606666135.2,286047001.1,N
1606666155.1,286046999.8,N
1606666156.0,286046999.8,N
1606666175.8,286046998.7,N
1606666195.6,286046999.4,N
1606666215.5,286046997.3,N
1606666235.3,286046997.9,N
1606666255.1,286046997.3,N
1606666275.9,286046997.8,N
1606666295.7,286046996.9,N
1606666315.6,286046995.5,Y
1606666335.4,286046996.9,P
1606666355.2,286046997.2,N
1606666375.1,286046997.4,N
1606666376.0,286046997.4,N
1606666395.8,286046997.5,Y
1606666415.6,286046999.9,P
1606666435.5,286047000.4,N
1606666455.3,286047002.6,N
1606666475.2,286047001.9,N
1606666495.9,286047005.9,Y
1606666515.7,286047003.4,P
1606666535.6,286047005.9,P
1606666555.4,286047001.7,N
1606666575.2,286047001.5,N
1606666595.1,286047001.9,N
1606666596.0,286047001.9,N
1606666615.8,286047001.3,N
1606666635.7,286047001.8,N
1606666655.5,286047001.4,N
1606666675.3,286047001.5,N
1606666695.2,286047002.0,N
1606666715.0,286047002.2,N
1606666715.9,286047002.2,N
1606666735.8,286047000.1,N
1606666755.6,286047002.1,N
1606666775.4,286047002.3,N
1606666795.3,286047000.1,N
1606666815.1,286047000.8,N
1606666816.0,286047000.8,N
1606666835.8,286047000.8,N
1606666855.7,286047002.7,N
1606666875.5,286047001.5,N
1606666895.3,286047000.1,N
1606666915.2,286047001.8,N
1606666935.0,286047003.1,N
1606666935.9,286047003.1,N
1606666955.8,286047003.0,N
1606666975.6,286047004.2,Y
1606666995.4,286047002.8,P
1606667015.3,286047002.4,P
1606667035.1,286047002.9,P
1606667055.9,286047005.7,Y
1606667075.7,286047002.7,P
1606667095.5,286047000.1,N
1606667115.4,286047002.1,N
1606667135.2,286047002.0,N
1606667155.0,286047002.8,N
1606667155.9,286047002.8,Y
1606667175.8,286046997.1,P
1606667195.6,286046997.4,N
1606667215.5,286046993.4,N
1606667235.3,286046996.4,N
1606667255.1,286046993.3,N
1606667275.9,286046993.7,N
1606667295.7,286046995.5,N
1606667315.5,286046997.3,N
1606667335.4,286047011.9,Y
1606667355.2,286047002.3,P
1606667375.1,286047000.1,N
1606667376.0,286047000.1,N
1606667395.8,286047000.3,N
1606667415.6,286047002.7,N
1606667435.5,286047001.6,N
1606667455.3,286047002.8,N
1606667475.1,286047002.6,N
1606667495.9,286047002.5,N
1606667515.7,286047000.2,N
1606667535.6,286047001.4,N
1606667555.4,286046999.8,N
1606667575.2,286047001.6,N
1606667595.1,286047001.5,N
1606667596.0,286047001.5,N
1606667615.8,286047002.4,N
1606667635.6,286047001.6,N
1606667655.5,286047002.6,N
1606667675.3,286046999.7,N
1606667695.2,286047001.7,N
1606667715.9,286047002.7,N
1606667735.7,286047000.6,N
1606667755.6,286047001.6,N
1606667775.4,286047002.4,N
1606667795.2,286047001.9,N
1606667815.1,286047000.2,N
1606667816.0,286047000.2,N
1606667835.8,286047001.4,N
1606667855.7,286047003.4,N
1606667875.5,286047001.8,N
1606667895.3,286047002.3,N
1606667915.2,286047004.4,Y
1606667935.0,286047000.5,P
1606667935.9,286047000.5,N
1606667955.7,286047000.3,N
1606667975.6,286046999.7,N
1606667995.4,286046999.8,N
1606668015.3,286046999.7,N
1606668035.1,286047001.7,N
1606668036.0,286047001.7,N
1606668055.8,286047003.7,Y
1606668075.7,286047005.2,P
1606668095.5,286047002.9,N
1606668115.3,286047004.1,N
1606668135.2,286047004.3,N
1606668155.0,286047003.7,N
1606668155.9,286047003.7,N
1606668175.8,286047003.1,N
1606668195.6,286047003.9,Y
1606668215.4,286046999.3,P
1606668235.3,286046998.7,N
1606668255.1,286046999.2,N
1606668275.9,286046996.7,N
1606668295.7,286046997.9,N
1606668315.5,286046999.6,N
1606668335.4,286046997.0,N
1606668355.2,286046995.4,N
1606668375.0,286046995.0,N
1606668375.9,286046995.0,N
1606668395.8,286046995.3,N
1606668415.6,286046995.5,N
1606668435.5,286046996.1,N
1606668455.3,286046997.7,N
1606668475.1,286046996.5,N
1606668495.9,286046995.5,N
1606668515.7,286046996.4,N
1606668535.5,286046995.1,N
1606668555.4,286046996.2,N
1606668575.2,286046994.0,N
1606668595.1,286046991.8,Y
1606668596.0,286046991.8,P
1606668615.8,286046999.2,N
1606668635.6,286046998.3,N
1606668655.5,286047000.2,N
1606668675.3,286047000.2,N
1606668695.1,286046998.3,N
1606668715.9,286047000.3,N
1606668735.7,286047001.3,N
1606668755.6,286047002.4,N
1606668775.4,286047001.0,N
1606668795.2,286047002.4,N
1606668815.1,286047000.5,N
1606668816.0,286047000.5,N
1606668835.8,286047000.6,N
1606668855.6,286047001.1,N
1606668875.5,286047000.3,N
1606668895.3,286047001.8,N
1606668915.2,286047001.9,N
1606668935.9,286047001.8,N
1606668955.7,286047002.6,N
1606668975.6,286047002.2,N
1606668995.4,286047000.3,N
1606669015.2,286047000.5,N
1606669035.1,286047001.0,N
1606669036.0,286047001.0,N
1606669055.8,286046999.2,N
1606669075.7,286046999.3,N
1606669095.5,286046999.2,N
1606669115.3,286046998.8,N
1606669135.2,286046998.9,N
1606669155.9,286046998.7,N
1606669175.7,286047000.6,N
1606669195.6,286047001.0,N
